When you browse on this site, cookies collect data to enhance your experience and personalize the content and advertising you see.
Visit our Privacy Policy to learn more. By continuing to use the site, you agree to this use of cookies and data.
  • In Schweiz
  • Länderverzeichnis
  • Für 7 Tage
  • Wassertemperatur
  • Satellitenkarten
  • Wetterkarte
  • Widgets
  • user-avatar
    Anmelden

    Stündliche Wetter Horgen

    Heute, 22 Juli, Montag

    Zeit Temperatur Niederschläge Wind Luftdruck Luftfeuchtigkeit
    00:00 +19°C° 0 mm 1 m/S 720 mmHg 91%
    01:00 +19°C° 0 mm 1 m/S 721 mmHg 92%
    02:00 +19°C° 0 mm 1 m/S 720 mmHg 92%
    03:00 +19°C° 0 mm 1 m/S 720 mmHg 92%
    04:00 +18°C° 0 mm 1 m/S 720 mmHg 92%
    05:00 +17°C° 0 mm 0 m/S 720 mmHg 91%
    06:00 +18°C° 0 mm 0 m/S 721 mmHg 90%
    07:00 +20°C° 0 mm 0 m/S 721 mmHg 86%
    08:00 +22°C° 0 mm 0 m/S 721 mmHg 78%
    09:00 +26°C° 0 mm 1 m/S 722 mmHg 69%
    10:00 +28°C° 0 mm 1 m/S 722 mmHg 60%
    11:00 +29°C° 0 mm 1 m/S 722 mmHg 55%
    12:00 +30°C° 0 mm 1 m/S 722 mmHg 50%
    13:00 +32°C° 0 mm 1 m/S 722 mmHg 45%
    14:00 +31°C° 0 mm 1 m/S 721 mmHg 45%
    15:00 +31°C° 0 mm 1 m/S 721 mmHg 45%
    16:00 +31°C° 0 mm 1 m/S 721 mmHg 44%
    17:00 +29°C° 0 mm 1 m/S 721 mmHg 53%
    18:00 +28°C° 0 mm 1 m/S 721 mmHg 61%
    19:00 +26°C° 0 mm 1 m/S 720 mmHg 70%
    20:00 +25°C° 0 mm 1 m/S 720 mmHg 74%
    21:00 +23°C° 0 mm 1 m/S 720 mmHg 78%
    22:00 +21°C° 0 mm 1 m/S 720 mmHg 82%
    23:00 +21°C° 0 mm 1 m/S 720 mmHg 84%

    Morgen, 23 Juli, Dienstag

    Zeit Temperatur Niederschläge Wind Luftdruck Luftfeuchtigkeit
    00:00 +20°C° 0 mm 1 m/S 720 mmHg 86%
    01:00 +18°C° 0 mm 0 m/S 720 mmHg 88%
    02:00 +17°C° 0 mm 0 m/S 720 mmHg 89%
    03:00 +17°C° 0 mm 0 m/S 719 mmHg 90%
    04:00 +16°C° 0 mm 0 m/S 719 mmHg 91%
    05:00 +18°C° 0 mm 0 m/S 719 mmHg 88%
    06:00 +19°C° 0 mm 0 m/S 719 mmHg 85%
    07:00 +20°C° 0 mm 0 m/S 719 mmHg 82%
    08:00 +22°C° 0 mm 0 m/S 719 mmHg 74%
    09:00 +26°C° 0 mm 1 m/S 719 mmHg 66%
    10:00 +28°C° 0 mm 1 m/S 719 mmHg 59%
    11:00 +29°C° 0 mm 1 m/S 719 mmHg 54%
    12:00 +31°C° 0 mm 1 m/S 719 mmHg 49%
    13:00 +32°C° 0 mm 2 m/S 719 mmHg 45%
    14:00 +32°C° 0 mm 2 m/S 719 mmHg 44%
    15:00 +32°C° 0 mm 2 m/S 719 mmHg 43%
    16:00 +32°C° 0 mm 2 m/S 718 mmHg 43%
    17:00 +31°C° 0 mm 2 m/S 718 mmHg 53%
    18:00 +29°C° 0 mm 1 m/S 718 mmHg 63%
    19:00 +27°C° 0 mm 1 m/S 717 mmHg 73%
    20:00 +26°C° 0 mm 1 m/S 717 mmHg 77%
    21:00 +24°C° 0 mm 1 m/S 717 mmHg 82%
    22:00 +23°C° 0 mm 1 m/S 717 mmHg 86%
    23:00 +22°C° 0 mm 1 m/S 717 mmHg 86%

    übermorgen, 24 Juli, Mittwoch

    Zeit Temperatur Niederschläge Wind Luftdruck Luftfeuchtigkeit
    00:00 +20°C° 0 mm 0 m/S 717 mmHg 87%
    01:00 +19°C° 0 mm 0 m/S 717 mmHg 87%
    02:00 +19°C° 0 mm 0 m/S 716 mmHg 87%
    03:00 +19°C° 0 mm 0 m/S 716 mmHg 88%
    04:00 +18°C° 0 mm 0 m/S 716 mmHg 88%
    05:00 +19°C° 0 mm 0 m/S 716 mmHg 85%
    06:00 +20°C° 0 mm 0 m/S 716 mmHg 83%
    07:00 +22°C° 0 mm 0 m/S 717 mmHg 81%
    08:00 +24°C° 0 mm 0 m/S 717 mmHg 72%
    09:00 +26°C° 0 mm 0 m/S 717 mmHg 64%
    10:00 +29°C° 0 mm 0 m/S 717 mmHg 55%
    11:00 +32°C° 0 mm 1 m/S 717 mmHg 49%
    12:00 +33°C° 0 mm 1 m/S 717 mmHg 43%
    13:00 +35°C° 0 mm 1 m/S 717 mmHg 37%
    14:00 +34°C° 0 mm 1 m/S 717 mmHg 35%
    15:00 +34°C° 0 mm 1 m/S 717 mmHg 34%
    16:00 +34°C° 0 mm 1 m/S 717 mmHg 33%
    17:00 +32°C° 0 mm 1 m/S 716 mmHg 41%
    18:00 +28°C° 0 mm 0 m/S 716 mmHg 49%
    19:00 +27°C° 0 mm 0 m/S 716 mmHg 58%
    20:00 +27°C° 0 mm 1 m/S 716 mmHg 60%
    21:00 +25°C° 0 mm 1 m/S 716 mmHg 62%
    22:00 +24°C° 0 mm 1 m/S 716 mmHg 64%
    23:00 +23°C° 0 mm 1 m/S 716 mmHg 66%

    25 Juli, Donnerstag

    Zeit Temperatur Niederschläge Wind Luftdruck Luftfeuchtigkeit
    00:00 +23°C° 0 mm 1 m/S 716 mmHg 67%
    01:00 +22°C° 0 mm 1 m/S 716 mmHg 69%
    02:00 +22°C° 0 mm 1 m/S 716 mmHg 70%
    03:00 +21°C° 0 mm 1 m/S 716 mmHg 71%
    04:00 +21°C° 0 mm 1 m/S 716 mmHg 73%
    05:00 +20°C° 0 mm 0 m/S 716 mmHg 72%
    06:00 +21°C° 0 mm 0 m/S 716 mmHg 71%
    07:00 +22°C° 0 mm 0 m/S 716 mmHg 70%
    08:00 +24°C° 0 mm 0 m/S 716 mmHg 63%
    09:00 +28°C° 0 mm 1 m/S 716 mmHg 56%
    10:00 +31°C° 0 mm 1 m/S 717 mmHg 49%
    11:00 +32°C° 0 mm 1 m/S 716 mmHg 45%
    12:00 +33°C° 0 mm 1 m/S 716 mmHg 40%
    13:00 +35°C° 0 mm 1 m/S 716 mmHg 36%
    14:00 +35°C° 0 mm 1 m/S 716 mmHg 37%
    15:00 +34°C° 0 mm 1 m/S 716 mmHg 37%
    16:00 +35°C° 0 mm 2 m/S 715 mmHg 38%
    17:00 +32°C° 0 mm 1 m/S 715 mmHg 48%
    18:00 +31°C° 0 mm 1 m/S 715 mmHg 58%
    19:00 +29°C° 0 mm 1 m/S 715 mmHg 69%
    20:00 +27°C° 0 mm 1 m/S 715 mmHg 71%
    21:00 +26°C° 0 mm 1 m/S 716 mmHg 74%
    22:00 +25°C° 0 mm 1 m/S 716 mmHg 76%
    23:00 +24°C° 0 mm 1 m/S 715 mmHg 77%

    26 Juli, Freitag

    Zeit Temperatur Niederschläge Wind Luftdruck Luftfeuchtigkeit
    00:00 +24°C° 0 mm 1 m/S 715 mmHg 78%
    01:00 +23°C° 0 mm 1 m/S 715 mmHg 78%
    02:00 +23°C° 0 mm 1 m/S 715 mmHg 78%
    03:00 +20°C° 0 mm 0 m/S 714 mmHg 78%
    04:00 +20°C° 0 mm 0 m/S 714 mmHg 79%
    05:00 +21°C° 0.1 mm 0 m/S 714 mmHg 77%
    06:00 +22°C° 0.1 mm 0 m/S 714 mmHg 76%
    07:00 +23°C° 0.1 mm 0 m/S 715 mmHg 75%
    08:00 +25°C° 0 mm 0 m/S 715 mmHg 69%
    09:00 +26°C° 0 mm 0 m/S 715 mmHg 63%
    10:00 +28°C° 0 mm 0 m/S 715 mmHg 57%
    11:00 +30°C° 0.1 mm 0 m/S 715 mmHg 53%
    12:00 +31°C° 0.1 mm 0 m/S 714 mmHg 48%
    13:00 +32°C° 0.1 mm 0 m/S 714 mmHg 44%
    14:00 +33°C° 0.1 mm 1 m/S 714 mmHg 47%
    15:00 +32°C° 0.1 mm 2 m/S 714 mmHg 50%
    16:00 +30°C° 0.1 mm 3 m/S 713 mmHg 53%
    17:00 +28°C° 0.7 mm 3 m/S 713 mmHg 61%
    18:00 +26°C° 0.7 mm 3 m/S 713 mmHg 69%
    19:00 +24°C° 0.7 mm 3 m/S 713 mmHg 77%
    20:00 +22°C° 0.1 mm 3 m/S 713 mmHg 77%
    21:00 +21°C° 0.1 mm 2 m/S 713 mmHg 76%
    22:00 +20°C° 0.1 mm 2 m/S 713 mmHg 75%
    23:00 +21°C° 0 mm 1 m/S 713 mmHg 76%

    27 Juli, Samstag

    Zeit Temperatur Niederschläge Wind Luftdruck Luftfeuchtigkeit
    00:00 +20°C° 0 mm 1 m/S 713 mmHg 76%
    01:00 +20°C° 0 mm 1 m/S 712 mmHg 77%
    02:00 +20°C° 0 mm 1 m/S 712 mmHg 76%
    03:00 +18°C° 0 mm 0 m/S 712 mmHg 75%
    04:00 +17°C° 0 mm 0 m/S 712 mmHg 74%
    05:00 +18°C° 0 mm 0 m/S 712 mmHg 74%
    06:00 +19°C° 0 mm 0 m/S 712 mmHg 74%
    07:00 +20°C° 0 mm 0 m/S 713 mmHg 74%
    08:00 +24°C° 0 mm 1 m/S 713 mmHg 68%
    09:00 +26°C° 0 mm 1 m/S 713 mmHg 62%
    10:00 +28°C° 0 mm 1 m/S 713 mmHg 56%
    11:00 +30°C° 0.1 mm 1 m/S 713 mmHg 53%
    12:00 +31°C° 0.1 mm 2 m/S 713 mmHg 51%
    13:00 +32°C° 0.1 mm 2 m/S 713 mmHg 48%
    14:00 +31°C° 0.5 mm 2 m/S 713 mmHg 52%
    15:00 +31°C° 0.5 mm 2 m/S 713 mmHg 57%
    16:00 +30°C° 0.5 mm 2 m/S 713 mmHg 61%
    17:00 +28°C° 1.7 mm 2 m/S 713 mmHg 70%
    18:00 +26°C° 1.7 mm 1 m/S 713 mmHg 79%
    19:00 +24°C° 1.7 mm 1 m/S 713 mmHg 89%
    20:00 +23°C° 0.7 mm 1 m/S 713 mmHg 91%
    21:00 +22°C° 0.7 mm 1 m/S 713 mmHg 93%
    22:00 +21°C° 0.7 mm 1 m/S 714 mmHg 94%
    23:00 +21°C° 1.3 mm 1 m/S 714 mmHg 95%
    Mehr zeigen